Regional Weather Roundup
Issued by NWS Sterling, VA

Home | Current Version | Previous Version | Graphics & Text | Print | Product List | Glossary On
Versions: 1 2 3 4 5 6 7 8 9 10 11 12 13 14 15 16 17 18 19 20 21 22 23 24 25 26 27
000
ASUS41 KLWX 250011
RWRLWX

REGIONAL WEATHER ROUNDUP
NATIONAL WEATHER SERVICE BALTIMORE MD/WASHINGTON DC
800 PM EDT SAT JUN 24 2017

Note: "FAIR" indicates few or no clouds below 12,000 feet
with no significant weather and/or obstructions to visibility.
 TC=TEMPERATURE CELSIUS

 * =Non NWS site. Station does not report precipitation (e.g. rain,
    snow, etc.), thunder, or fog.

DCZ001-MDZ009-015-VAZ040>042-051-053>054-250100-
WASHINGTON METRO

CITY           SKY/WX    TMP DP  RH WIND       PRES   REMARKS
WASHINGTON NAT PTCLDY    84  57  39 SW8       29.90S
DULLES         PTCLDY    81  59  47 SW3       29.91R
ANDREWS AFB    CLEAR     82  57  42 SW6       29.90S
FT BELVOIR     CLEAR     81  62  53 CALM      29.90S
QUANTICO       CLEAR     84  60  44 N6        29.91S
COLLEGE PARK*  CLEAR     83  57  41 W3        29.90S
LEESBURG*      CLEAR    N/A N/A N/A CALM      29.92S
MANASSAS*      CLEAR     81  63  54 SW3       29.91S
GAITHERSBURG*  CLEAR     79  59  50 W3        29.93R

$$

MDZ006>007-011-014-250100-
BALTIMORE METRO

CITY           SKY/WX    TMP DP  RH WIND       PRES   REMARKS
BWI AIRPORT    PTCLDY    80  59  48 W7        29.90R
MD SCIENCE CTR   N/A     84  57  39 MISG      29.90R
MARTIN STATE   PTCLDY    84  61  45 W9        29.89S
ANNAPOLIS      CLEAR     82  61  48 W3        29.89S
FORT MEADE*    CLEAR     73  64  73 CALM      29.92S

$$

MDZ012-015-019>023-250100-
MARYLAND EASTERN SHORE

CITY           SKY/WX    TMP DP  RH WIND       PRES   REMARKS
OCEAN CITY     CLOUDY    83  67  58 W3        29.90R
SALISBURY      MOCLDY    83  63  50 NW3       29.90R
BAY BRIDGE AP* CLEAR     82  63  51 W6        29.90S
CAMBRIDGE*     MOCLDY    82  61  47 NW5       29.90S
EASTON*        PTCLDY    84  61  45 CALM      29.94R

$$

MDZ017>025-250100-
SOUTHERN MARYLAND

CITY           SKY/WX    TMP DP  RH WIND       PRES   REMARKS
PATUXENT RIVER PTCLDY    84  60  44 NW7       29.90R
ST INIGOES     MOCLDY    85  65  51 VRB3      29.90R
LEONARDTOWN*   PTCLDY    81  59  47 CALM      29.93

$$

MDZ003>005-250100-
NORTH CENTRAL MARYLAND

CITY           SKY/WX    TMP DP  RH WIND       PRES   REMARKS
FREDERICK*     CLEAR     82  54  36 W6        29.93R
HAGERSTOWN APT PTCLDY    81  58  45 SW6       29.91R
WESTMINSTER*   PTCLDY    82  63  51 SW5       29.92R

$$

MDZ501>502-250100-
WESTERN MARYLAND

CITY           SKY/WX    TMP DP  RH WIND       PRES   REMARKS
OAKLAND*       NOT AVBL
CUMBERLAND*    PTCLDY    79  55  44 W5        29.97R

$$

VAZ025>031-250100-
SHENANDOAH VALLEY

CITY           SKY/WX    TMP DP  RH WIND       PRES   REMARKS
WINCHESTER*    CLEAR     79  54  41 W7        29.93R
FRONT ROYAL*   CLEAR     79  54  41 SW3       29.92R
LURAY*         CLEAR     81  55  41 CALM      29.94S
NEW MARKET*    CLEAR     72  59  62 NW3       29.94R
STAUNTON*      PTCLDY    78  55  45 NW5       29.98R
WAYNESBORO*    CLOUDY    78  60  53 W5        29.98R

$$

WVZ021-048>050-054>055-250100-
EASTERN WEST VIRGINIA PANHANDLE

CITY           SKY/WX    TMP DP  RH WIND       PRES   REMARKS
MARTINSBURG    PTCLDY    79  57  46 SW7       29.91R
PETERSBURG*    CLEAR     79  58  48 W5        29.97R

$$

VAZ036>039-050-250100-
CENTRAL FOOTHILLS

CITY           SKY/WX    TMP DP  RH WIND       PRES   REMARKS
CHARLOTTESVILL PTCLDY    84  63  49 CALM      29.92R
CULPEPER*      CLEAR     79  68  68 CALM      29.93R
ORANGE*        CLEAR     77  68  73 CALM      29.92R
GORDONSVILLE*  CLOUDY    78  67  70 CALM      29.92R
WARRENTON*     CLEAR     80  62  54 CALM      29.91S

$$

VAZ055>057-250100-
NORTH AND CENTRAL PIEDMONT

CITY           SKY/WX    TMP DP  RH WIND       PRES   REMARKS
FREDERICKSBRG* CLEAR     85  58  40 N5        29.90S
STAFFORD*      CLEAR     78  66  66 CALM      29.95S

$$

NCZ024-NYZ072-PAZ021-071-VAZ022-071-250100-
OTHER REGIONAL OBSERVATIONS

CITY           SKY/WX    TMP DP  RH WIND       PRES   REMARKS
NEW YORK CITY  CLEAR     82  56  40 W6        29.85R
PHILADELPHIA   CLOUDY    83  59  44 SW9       29.87R
PITTSBURGH     PTCLDY    75  55  49 W8        29.95R
ROANOKE        PTCLDY    80  58  46 NW7       29.99R
RICHMOND       CLOUDY    84  70  62 SW8       29.91R
RALEIGH        CLOUDY    73  71  93 SE5       29.96S

$$

ANZ530>537-250100-
MARINE OBSERVATIONS

STATION/POSITION TIME  TEMP    WIND        PRES
                       AIR SEA DIR/SP/G
                 (UTC) (F)     (DEG/KT/KT) (MB)
THOMAS PT LIGHT  0000   83 79  280/  5/  7   N/A
BALT KEY BRIDGE  2342   83     260/  8/ 10 1011.7R
COVE POINT       2342   83     320/  4/  5 1013.2R
LEWISETTA        2342   83 80   10/  4/  6 1012.4R
SOLOMONS ISLAND  2348          320/  4/  6   N/A
PINEY POINT      2348           10/  7/  9   N/A

$$





USA.gov is the U.S. government's official web portal to all federal, state and local government web resources and services.